Gibraltar, Gibraltar

9:52 AM CET on January 23, 2018 (GMT +0100)
Gibraltar Air Base

Weather History for LXGB - November, 2012

Change the Weather History Date:

Tuesday, November 27, 2012

  Actual Average Record
Temperature  
Mean Temperature 54 °F -  
Max Temperature 57 °F 60 °F 69 °F (2000)
Min Temperature 50 °F 52 °F 44 °F (2005)
Degree Days  
Heating Degree Days 12    
Growing Degree Days 4 (Base 50)    
Moisture  
Dew Point 43 °F    
Average Humidity 65    
Maximum Humidity 82    
Minimum Humidity 43    
Precipitation  
Precipitation 0.00 in - - ()
Sea Level Pressure  
Sea Level Pressure 29.90 in    
Wind  
Wind Speed 15 mph ()    
Max Wind Speed 22 mph    
Max Gust Speed 32 mph    
Visibility 6.9 miles    
Events      
Averages and records for this station are not official NWS values.
T = Trace of Precipitation, MM = Missing Value Source: Averaged Metar Reports

Daily Weather History Graph

Daily Weather History Graph

Search for Another Location

Airport or City:

Trip Planner

Search our weather history database for the weather conditions in past years. The results will help you decide how hot, cold, wet, or windy it might be!

Date:

Astronomy

Nov. 27, 2012 Rise Set
Actual Time 8:10 AM CET 6:07 PM CET
Civil Twilight 7:42 AM CET 6:35 PM CET
Nautical Twilight 7:10 AM CET 7:07 PM CET
Astronomical Twilight 6:39 AM CET 7:38 PM CET
Moon 5:29 PM CET (11/27) 7:03 AM CET (11/27)
Length of Visible Light 10h 53m
Length of Day
9h 57m
Waxing Gibbous, 99% of the Moon is Illuminated
Nov 27
Waxing Gibbous
Nov 28
Full
Dec 6
Last Quarter
Dec 13
New
Dec 20
First Quarter

Hourly Weather History & Observations

Time (CET) Temp. Dew Point Humidity Pressure Visibility Wind Dir Wind Speed Gust Speed Precip Events Conditions
12:50 AM 56 °F 49 °F 72% 29.94 in 12 mi West 17.3 mph - -  
12:50 AM 57.2 °F 50.0 °F 77% 29.92 in 6.2 mi West 17.3 mph - N/A   Unknown
1:50 AM 55.4 °F 50.0 °F 82% 29.92 in 6.2 mi West 21.9 mph - N/A   Unknown
2:50 AM 55.4 °F 48.2 °F 77% 29.89 in 6.2 mi West 21.9 mph - N/A   Unknown
3:50 AM 53.6 °F 46.4 °F 77% 29.89 in 6.2 mi West 17.3 mph - N/A   Unknown
4:50 AM 53.6 °F 46.4 °F 77% 29.89 in 6.2 mi West 18.4 mph - N/A   Unknown
5:50 AM 51.8 °F 44.6 °F 76% 29.89 in 6.2 mi West 18.4 mph - N/A   Unknown
6:50 AM 51 °F 45 °F 73% 29.91 in 16 mi West 16.1 mph - -   Scattered Clouds
6:50 AM 51.8 °F 44.6 °F 76% 29.89 in 6.2 mi West 16.1 mph - N/A   Mostly Cloudy
7:50 AM 51.8 °F 42.8 °F 71% 29.92 in 6.2 mi West 15.0 mph - N/A   Mostly Cloudy
8:50 AM 50.0 °F 42.8 °F 76% 29.92 in 6.2 mi West 16.1 mph - N/A   Partly Cloudy
9:50 AM 50.0 °F 41.0 °F 71% 29.92 in 6.2 mi West 17.3 mph - N/A   Partly Cloudy
10:50 AM 51.8 °F 41.0 °F 67% 29.95 in 6.2 mi West 13.8 mph - N/A   Partly Cloudy
11:50 AM - - N/A% 0.00 in 6.2 mi West 12.7 mph - N/A   Partly Cloudy
12:50 PM 55 °F 39 °F 43%  in 25 mi WNW 16.1 mph - -   Scattered Clouds
12:50 PM 55.4 °F 39.2 °F 54% 0.00 in 6.2 mi WNW 16.1 mph 27.6 mph N/A   Partly Cloudy
1:50 PM 57.2 °F 37.4 °F 48% 29.89 in 6.2 mi West 20.7 mph - N/A   Partly Cloudy
3:50 PM 57.2 °F 39.2 °F 51% 29.86 in 6.2 mi West 20.7 mph - N/A   Partly Cloudy
4:50 PM 57.2 °F 41.0 °F 55% 29.86 in 6.2 mi West 19.6 mph 32.2 mph N/A   Partly Cloudy
5:50 PM 57.2 °F 44.6 °F 63% 29.86 in 6.2 mi WNW 16.1 mph - N/A   Partly Cloudy
6:50 PM 56 °F 42 °F 49% 29.88 in 25 mi West 13.8 mph - -   Scattered Clouds
6:50 PM 55.4 °F 42.8 °F 63% 29.86 in 6.2 mi West 13.8 mph - N/A   Partly Cloudy
7:50 PM 55.4 °F 42.8 °F 63% 29.89 in 6.2 mi West 12.7 mph - N/A   Partly Cloudy
8:50 PM 55.4 °F 39.2 °F 54% 29.89 in 6.2 mi West 13.8 mph - N/A   Partly Cloudy
9:50 PM 53.6 °F 37.4 °F 54% 29.89 in 6.2 mi WNW 11.5 mph - N/A   Partly Cloudy
10:50 PM 53.6 °F 37.4 °F 54% 29.89 in - West 13.8 mph - N/A   Clear
11:50 PM 53.6 °F 39.2 °F 58% 29.92 in 6.2 mi WNW 12.7 mph - N/A   Partly Cloudy